| time (UTC) | temp F | wind direction | speed MPH | gust MPH | rain 1hr in | rain 24hr in | rain mn in | humidity % | barometer mb |
| 20260507122414 | 46 | 0 | 0.0 | 2.0 | 0.00 | 0.00 | 0.00 | 81 | 1019.0 |
| 20260507121911 | 46 | 0 | 0.0 | 2.0 | 0.00 | 0.00 | 0.00 | 83 | 1019.0 |
| 20260507121412 | 45 | 140 | 0.0 | 2.0 | 0.00 | 0.00 | 0.00 | 85 | 1019.0 |
| 20260507120911 | 44 | 0 | 0.0 | 1.0 | 0.00 | 0.00 | 0.00 | 86 | 1019.0 |
| 20260507120414 | 43 | 118 | 0.0 | 2.0 | 0.00 | 0.00 | 0.00 | 89 | 1018.9 |
| 20260507115912 | 42 | 147 | 1.0 | 2.0 | 0.00 | 0.00 | 0.00 | 89 | 1018.8 |
| 20260507115413 | 41 | 0 | 0.0 | 0.0 | 0.00 | 0.00 | 0.00 | 90 | 1019.0 |
| 20260507114913 | 41 | 0 | 0.0 | 1.0 | 0.00 | 0.00 | 0.00 | 92 | 1019.0 |
| 20260507114412 | 40 | 345 | 0.0 | 2.0 | 0.00 | 0.00 | 0.00 | 94 | 1018.9 |
| 20260507113912 | 40 | 0 | 0.0 | 0.0 | 0.00 | 0.00 | 0.00 | 94 | 1019.0 |
| 20260507113414 | 40 | 0 | 0.0 | 2.0 | 0.00 | 0.00 | 0.00 | 94 | 1018.9 |
| 20260507112914 | 40 | 339 | 1.0 | 2.0 | 0.00 | 0.00 | 0.00 | 94 | 1018.8 |
| 20260507112412 | 40 | 334 | 1.0 | 2.0 | 0.00 | 0.00 | 0.00 | 94 | 1018.7 |
| 20260507111913 | 40 | 336 | 0.0 | 2.0 | 0.00 | 0.00 | 0.00 | 93 | 1018.7 |
| 20260507111412 | 40 | 355 | 1.0 | 2.0 | 0.00 | 0.00 | 0.00 | 94 | 1018.7 |
| 20260507110913 | 40 | 0 | 0.0 | 0.0 | 0.00 | 0.00 | 0.00 | 94 | 1018.6 |
| 20260507110412 | 40 | 0 | 0.0 | 0.0 | 0.00 | 0.00 | 0.00 | 94 | 1018.5 |
| 20260507105911 | 40 | 0 | 0.0 | 2.0 | 0.00 | 0.00 | 0.00 | 94 | 1018.4 |
| 20260507105413 | 40 | 19 | 0.0 | 2.0 | 0.00 | 0.00 | 0.00 | 95 | 1018.3 |
| 20260507104912 | 40 | 0 | 0.0 | 2.0 | 0.00 | 0.00 | 0.00 | 95 | 1018.3 |
| 20260507104413 | 40 | 148 | 1.0 | 2.0 | 0.00 | 0.00 | 0.00 | 94 | 1018.2 |
| 20260507103911 | 40 | 50 | 0.0 | 2.0 | 0.00 | 0.00 | 0.00 | 94 | 1018.4 |
| 20260507103413 | 39 | 345 | 0.0 | 2.0 | 0.00 | 0.00 | 0.00 | 95 | 1018.4 |
| 20260507102913 | 39 | 340 | 1.0 | 2.0 | 0.00 | 0.00 | 0.00 | 95 | 1018.2 |
| 20260507102413 | 39 | 0 | 0.0 | 1.0 | 0.00 | 0.00 | 0.00 | 95 | 1018.2 |
| 20260507101911 | 39 | 0 | 0.0 | 0.0 | 0.00 | 0.00 | 0.00 | 95 | 1018.3 |
| 20260507101412 | 39 | 0 | 0.0 | 0.0 | 0.00 | 0.00 | 0.00 | 95 | 1018.2 |
| 20260507100912 | 39 | 0 | 0.0 | 1.0 | 0.00 | 0.00 | 0.00 | 95 | 1018.3 |
| 20260507100412 | 38 | 0 | 0.0 | 2.0 | 0.00 | 0.00 | 0.00 | 95 | 1018.5 |
| 20260507095913 | 38 | 0 | 0.0 | 2.0 | 0.00 | 0.00 | 0.00 | 94 | 1018.4 |
| 20260507095412 | 38 | 0 | 0.0 | 2.0 | 0.00 | 0.00 | 0.00 | 94 | 1018.3 |
| 20260507094913 | 38 | 0 | 0.0 | 2.0 | 0.00 | 0.00 | 0.00 | 94 | 1018.5 |
| 20260507094412 | 38 | 0 | 0.0 | 0.0 | 0.00 | 0.00 | 0.00 | 94 | 1018.4 |
| 20260507093912 | 38 | 0 | 0.0 | 0.0 | 0.00 | 0.00 | 0.00 | 93 | 1018.5 |
| 20260507093411 | 39 | 0 | 0.0 | 0.0 | 0.00 | 0.00 | 0.00 | 92 | 1018.7 |
| 20260507092913 | 39 | 0 | 0.0 | 2.0 | 0.00 | 0.00 | 0.00 | 90 | 1018.6 |
| 20260507092414 | 39 | 338 | 1.0 | 2.0 | 0.00 | 0.00 | 0.00 | 91 | 1018.6 |
| 20260507091914 | 39 | 0 | 0.0 | 0.0 | 0.00 | 0.00 | 0.00 | 91 | 1018.6 |
| 20260507091412 | 39 | 0 | 0.0 | 1.0 | 0.00 | 0.00 | 0.00 | 90 | 1018.6 |
| 20260507090913 | 40 | 0 | 0.0 | 2.0 | 0.00 | 0.00 | 0.00 | 89 | 1018.7 |
| 20260507090413 | 40 | 346 | 1.0 | 2.0 | 0.00 | 0.00 | 0.00 | 90 | 1018.5 |
| 20260507085913 | 40 | 354 | 1.0 | 2.0 | 0.00 | 0.00 | 0.00 | 90 | 1018.4 |
| 20260507085413 | 40 | 354 | 2.0 | 2.0 | 0.00 | 0.00 | 0.00 | 89 | 1018.3 |
| 20260507084914 | 40 | 357 | 2.0 | 3.0 | 0.00 | 0.00 | 0.00 | 89 | 1018.3 |
| 20260507084412 | 40 | 357 | 0.0 | 1.0 | 0.00 | 0.00 | 0.00 | 89 | 1018.3 |
| 20260507083914 | 40 | 351 | 0.0 | 2.0 | 0.00 | 0.00 | 0.00 | 89 | 1018.3 |
| 20260507083413 | 40 | 329 | 0.0 | 2.0 | 0.00 | 0.00 | 0.00 | 90 | 1018.1 |
| 20260507082912 | 40 | 352 | 2.0 | 3.0 | 0.00 | 0.00 | 0.00 | 89 | 1018.2 |
| 20260507082413 | 40 | 356 | 2.0 | 3.0 | 0.00 | 0.00 | 0.00 | 89 | 1018.1 |
| 20260507081913 | 40 | 357 | 2.0 | 2.0 | 0.00 | 0.00 | 0.00 | 89 | 1018.0 |
| 20260507081414 | 40 | 351 | 2.0 | 2.0 | 0.00 | 0.00 | 0.00 | 88 | 1018.0 |
| 20260507080915 | 41 | 356 | 1.0 | 2.0 | 0.00 | 0.00 | 0.00 | 87 | 1018.1 |
| 20260507080413 | 41 | 0 | 1.0 | 2.0 | 0.00 | 0.00 | 0.00 | 86 | 1018.1 |
| 20260507075914 | 41 | 356 | 1.0 | 2.0 | 0.00 | 0.00 | 0.00 | 86 | 1018.2 |
| 20260507075412 | 41 | 345 | 1.0 | 3.0 | 0.00 | 0.00 | 0.00 | 86 | 1018.2 |
| 20260507074913 | 41 | 2 | 1.0 | 3.0 | 0.00 | 0.00 | 0.00 | 85 | 1018.2 |
| 20260507074411 | 42 | 355 | 2.0 | 2.0 | 0.00 | 0.00 | 0.00 | 85 | 1018.2 |
| 20260507073913 | 42 | 340 | 0.0 | 1.0 | 0.00 | 0.00 | 0.00 | 83 | 1018.4 |
| 20260507073413 | 42 | 0 | 0.0 | 2.0 | 0.00 | 0.00 | 0.00 | 82 | 1018.5 |
| 20260507072911 | 43 | 355 | 0.0 | 3.0 | 0.00 | 0.00 | 0.00 | 81 | 1018.6 |
| 20260507072411 | 43 | 9 | 1.0 | 3.0 | 0.00 | 0.00 | 0.00 | 82 | 1018.6 |
| 20260507071914 | 44 | 29 | 1.0 | 3.0 | 0.00 | 0.00 | 0.00 | 80 | 1018.7 |
| 20260507071412 | 44 | 340 | 1.0 | 3.0 | 0.00 | 0.00 | 0.00 | 77 | 1018.7 |
| 20260507070911 | 45 | 344 | 2.0 | 5.0 | 0.00 | 0.00 | 0.00 | 76 | 1018.7 |
| 20260507070413 | 45 | 348 | 2.0 | 4.0 | 0.00 | 0.00 | 0.00 | 73 | 1018.7 |
| 20260507065914 | 45 | 354 | 2.0 | 3.0 | 0.00 | 0.00 | 0.00 | 72 | 1018.7 |
| 20260507065412 | 45 | 2 | 1.0 | 3.0 | 0.00 | 0.00 | 0.00 | 73 | 1018.6 |
| 20260507064913 | 45 | 5 | 2.0 | 4.0 | 0.00 | 0.00 | 0.00 | 75 | 1018.6 |
| 20260507064414 | 46 | 2 | 2.0 | 3.0 | 0.00 | 0.00 | 0.00 | 75 | 1018.5 |
| 20260507063912 | 46 | 355 | 1.0 | 4.0 | 0.00 | 0.00 | 0.00 | 74 | 1018.6 |
| 20260507063414 | 47 | 339 | 2.0 | 4.0 | 0.00 | 0.00 | 0.00 | 70 | 1018.7 |
| 20260507062914 | 47 | 357 | 3.0 | 4.0 | 0.00 | 0.00 | 0.00 | 69 | 1018.6 |
| 20260507062413 | 47 | 349 | 2.0 | 3.0 | 0.00 | 0.00 | 0.00 | 69 | 1018.6 |
| 20260507061911 | 47 | 339 | 2.0 | 4.0 | 0.00 | 0.00 | 0.00 | 69 | 1018.6 |
| 20260507061411 | 47 | 22 | 1.0 | 4.0 | 0.00 | 0.00 | 0.00 | 69 | 1018.7 |
| 20260507060912 | 47 | 342 | 2.0 | 4.0 | 0.00 | 0.00 | 0.00 | 68 | 1018.7 |
| 20260507060411 | 47 | 4 | 2.0 | 4.0 | 0.00 | 0.00 | 0.00 | 69 | 1018.6 |
| 20260507055911 | 47 | 344 | 1.0 | 3.0 | 0.00 | 0.00 | 0.00 | 68 | 1018.7 |
| 20260507055411 | 47 | 353 | 2.0 | 4.0 | 0.00 | 0.00 | 0.00 | 69 | 1018.6 |
| 20260507054911 | 47 | 336 | 2.0 | 5.0 | 0.00 | 0.00 | 0.00 | 69 | 1018.6 |
| 20260507054411 | 47 | 342 | 3.0 | 4.0 | 0.00 | 0.00 | 0.00 | 70 | 1018.5 |
| 20260507053911 | 47 | 17 | 2.0 | 4.0 | 0.00 | 0.00 | 0.00 | 69 | 1018.5 |
| 20260507053411 | 47 | 23 | 2.0 | 4.0 | 0.00 | 0.00 | 0.00 | 69 | 1018.4 |
| 20260507052912 | 47 | 354 | 1.0 | 4.0 | 0.00 | 0.00 | 0.00 | 70 | 1018.5 |
| 20260507052413 | 47 | 0 | 0.0 | 3.0 | 0.00 | 0.00 | 0.00 | 70 | 1018.6 |
| 20260507051911 | 47 | 354 | 2.0 | 4.0 | 0.00 | 0.00 | 0.00 | 69 | 1018.6 |
| 20260507051412 | 48 | 15 | 2.0 | 4.0 | 0.00 | 0.00 | 0.00 | 69 | 1018.4 |
| 20260507050912 | 48 | 345 | 1.0 | 4.0 | 0.00 | 0.00 | 0.00 | 70 | 1018.4 |
| 20260507050414 | 48 | 1 | 2.0 | 4.0 | 0.00 | 0.00 | 0.00 | 69 | 1018.4 |
| 20260507045912 | 48 | 6 | 1.0 | 4.0 | 0.00 | 0.00 | 0.00 | 69 | 1018.3 |
| 20260507045411 | 48 | 346 | 2.0 | 4.0 | 0.00 | 0.00 | 0.00 | 68 | 1018.2 |
| 20260507044913 | 48 | 14 | 1.0 | 5.0 | 0.00 | 0.00 | 0.00 | 68 | 1018.1 |
| 20260507044412 | 48 | 359 | 3.0 | 5.0 | 0.00 | 0.00 | 0.00 | 68 | 1018.2 |
| 20260507043912 | 49 | 358 | 1.0 | 4.0 | 0.00 | 0.00 | 0.00 | 67 | 1018.3 |
| 20260507043411 | 49 | 349 | 2.0 | 4.0 | 0.00 | 0.00 | 0.00 | 67 | 1018.2 |
| 20260507042911 | 49 | 356 | 2.0 | 4.0 | 0.00 | 0.00 | 0.00 | 68 | 1018.1 |
| 20260507042412 | 49 | 7 | 2.0 | 4.0 | 0.00 | 0.00 | 0.00 | 69 | 1018.1 |
| 20260507041912 | 49 | 349 | 0.0 | 5.0 | 0.00 | 0.00 | 0.00 | 68 | 1018.1 |
| 20260507041412 | 49 | 355 | 2.0 | 4.0 | 0.00 | 0.00 | 0.00 | 68 | 1018.0 |
| 20260507040913 | 49 | 348 | 2.0 | 3.0 | 0.00 | 0.00 | 0.00 | 68 | 1018.0 |
| 20260507040411 | 49 | 341 | 2.0 | 4.0 | 0.00 | 0.00 | 0.00 | 68 | 1017.9 |
| 20260507035914 | 49 | 9 | 2.0 | 5.0 | 0.00 | 0.00 | 0.00 | 67 | 1017.9 |
| 20260507035411 | 49 | 22 | 2.0 | 4.0 | 0.00 | 0.00 | 0.00 | 67 | 1018.0 |
| 20260507034912 | 49 | 320 | 0.0 | 4.0 | 0.00 | 0.00 | 0.00 | 67 | 1018.1 |
| 20260507034411 | 49 | 2 | 2.0 | 4.0 | 0.00 | 0.00 | 0.00 | 66 | 1018.1 |
| 20260507033911 | 50 | 3 | 1.0 | 4.0 | 0.00 | 0.00 | 0.00 | 66 | 1018.0 |
| 20260507033411 | 50 | 351 | 2.0 | 4.0 | 0.00 | 0.00 | 0.00 | 66 | 1018.0 |
| 20260507032912 | 50 | 2 | 2.0 | 4.0 | 0.00 | 0.00 | 0.00 | 66 | 1018.0 |
| 20260507032412 | 50 | 352 | 2.0 | 3.0 | 0.00 | 0.00 | 0.00 | 66 | 1017.9 |
| 20260507031911 | 50 | 1 | 2.0 | 5.0 | 0.00 | 0.00 | 0.00 | 66 | 1017.9 |
| 20260507031412 | 50 | 342 | 2.0 | 4.0 | 0.00 | 0.00 | 0.00 | 66 | 1017.8 |
| 20260507030912 | 50 | 346 | 1.0 | 4.0 | 0.00 | 0.00 | 0.00 | 66 | 1017.7 |
| 20260507030414 | 51 | 359 | 1.0 | 4.0 | 0.00 | 0.00 | 0.00 | 65 | 1017.7 |
| 20260507025913 | 51 | 14 | 1.0 | 4.0 | 0.00 | 0.00 | 0.00 | 65 | 1017.7 |
| 20260507025412 | 51 | 359 | 2.0 | 5.0 | 0.00 | 0.00 | 0.00 | 64 | 1017.6 |
| 20260507024911 | 51 | 357 | 2.0 | 4.0 | 0.00 | 0.00 | 0.00 | 64 | 1017.5 |
| 20260507024412 | 51 | 341 | 1.0 | 4.0 | 0.00 | 0.00 | 0.00 | 63 | 1017.5 |
| 20260507023912 | 51 | 351 | 2.0 | 4.0 | 0.00 | 0.00 | 0.00 | 64 | 1017.5 |
| 20260507023412 | 51 | 1 | 2.0 | 4.0 | 0.00 | 0.00 | 0.00 | 64 | 1017.3 |
| 20260507022913 | 51 | 359 | 2.0 | 4.0 | 0.00 | 0.00 | 0.00 | 63 | 1017.3 |
| 20260507022412 | 51 | 348 | 2.0 | 4.0 | 0.00 | 0.00 | 0.00 | 64 | 1017.3 |
| 20260507021913 | 51 | 341 | 1.0 | 4.0 | 0.00 | 0.00 | 0.00 | 65 | 1017.5 |
| 20260507021414 | 51 | 350 | 2.0 | 3.0 | 0.00 | 0.00 | 0.00 | 65 | 1017.5 |
| 20260507020914 | 51 | 347 | 1.0 | 2.0 | 0.00 | 0.00 | 0.00 | 65 | 1017.3 |
| 20260507020411 | 51 | 354 | 1.0 | 3.0 | 0.00 | 0.00 | 0.00 | 66 | 1017.3 |
| 20260507015914 | 51 | 342 | 1.0 | 3.0 | 0.00 | 0.00 | 0.00 | 66 | 1017.2 |
| 20260507015413 | 52 | 340 | 2.0 | 2.0 | 0.00 | 0.00 | 0.00 | 67 | 1017.2 |
| 20260507014913 | 52 | 343 | 1.0 | 2.0 | 0.00 | 0.00 | 0.00 | 66 | 1017.1 |
| 20260507014412 | 52 | 0 | 1.0 | 3.0 | 0.00 | 0.00 | 0.00 | 64 | 1017.1 |
| 20260507013912 | 53 | 346 | 2.0 | 3.0 | 0.00 | 0.00 | 0.00 | 65 | 1017.0 |
| 20260507013411 | 53 | 348 | 2.0 | 4.0 | 0.00 | 0.00 | 0.00 | 65 | 1017.0 |
| 20260507012911 | 54 | 353 | 2.0 | 3.0 | 0.00 | 0.00 | 0.00 | 63 | 1017.0 |
| 20260507012412 | 54 | 345 | 1.0 | 3.0 | 0.00 | 0.00 | 0.00 | 63 | 1016.9 |
| 20260507011911 | 55 | 354 | 1.0 | 4.0 | 0.00 | 0.00 | 0.00 | 62 | 1016.8 |
| 20260507011414 | 55 | 356 | 2.0 | 4.0 | 0.00 | 0.00 | 0.00 | 62 | 1016.8 |
| 20260507010911 | 55 | 334 | 2.0 | 4.0 | 0.00 | 0.00 | 0.00 | 61 | 1016.8 |
| 20260507010414 | 56 | 9 | 2.0 | 4.0 | 0.00 | 0.00 | 0.00 | 60 | 1016.8 |
| 20260507005913 | 57 | 355 | 1.0 | 3.0 | 0.00 | 0.00 | 0.00 | 58 | 1016.7 |
| 20260507005412 | 57 | 10 | 1.0 | 3.0 | 0.00 | 0.00 | 0.00 | 56 | 1016.6 |
| 20260507004912 | 58 | 25 | 0.0 | 2.0 | 0.00 | 0.00 | 0.00 | 55 | 1016.6 |
| 20260507004412 | 59 | 57 | 1.0 | 3.0 | 0.00 | 0.00 | 0.00 | 53 | 1016.6 |
| 20260507003912 | 59 | 38 | 1.0 | 6.0 | 0.00 | 0.00 | 0.00 | 54 | 1016.6 |
| 20260507003411 | 59 | 354 | 0.0 | 5.0 | 0.00 | 0.00 | 0.00 | 53 | 1016.5 |
| 20260507002911 | 59 | 17 | 2.0 | 5.0 | 0.00 | 0.00 | 0.00 | 52 | 1016.4 |
| 20260507002414 | 59 | 118 | 2.0 | 6.0 | 0.00 | 0.00 | 0.00 | 51 | 1016.4 |
| 20260507001914 | 59 | 80 | 1.0 | 7.0 | 0.00 | 0.00 | 0.00 | 51 | 1016.4 |
| 20260507001412 | 60 | 37 | 1.0 | 4.0 | 0.00 | 0.00 | 0.00 | 50 | 1016.4 |
| 20260507000912 | 60 | 139 | 0.0 | 5.0 | 0.00 | 0.00 | 0.00 | 50 | 1016.3 |
| 20260507000412 | 61 | 69 | 2.0 | 5.0 | 0.00 | 0.00 | 0.00 | 48 | 1016.3 |
| 20260506235912 | 61 | 51 | 1.0 | 5.0 | 0.00 | 0.00 | 0.00 | 48 | 1016.3 |
| 20260506235412 | 62 | 3 | 3.0 | 5.0 | 0.00 | 0.00 | 0.00 | 46 | 1016.2 |
| 20260506234911 | 62 | 40 | 1.0 | 5.0 | 0.00 | 0.00 | 0.00 | 46 | 1016.2 |
| 20260506234415 | 62 | 83 | 1.0 | 4.0 | 0.00 | 0.00 | 0.00 | 45 | 1016.2 |
| 20260506233913 | 62 | 79 | 2.0 | 5.0 | 0.00 | 0.00 | 0.00 | 45 | 1016.0 |
| 20260506233411 | 62 | 66 | 3.0 | 9.0 | 0.00 | 0.00 | 0.00 | 45 | 1015.9 |
| 20260506232911 | 62 | 87 | 3.0 | 8.0 | 0.00 | 0.00 | 0.00 | 45 | 1015.9 |
| 20260506232412 | 62 | 58 | 3.0 | 9.0 | 0.00 | 0.00 | 0.00 | 45 | 1015.5 |
| 20260506231913 | 62 | 79 | 3.0 | 8.0 | 0.00 | 0.00 | 0.00 | 46 | 1015.5 |
| 20260506231412 | 62 | 122 | 4.0 | 9.0 | 0.00 | 0.00 | 0.00 | 46 | 1015.5 |
| 20260506230911 | 62 | 120 | 4.0 | 7.0 | 0.00 | 0.00 | 0.00 | 47 | 1015.4 |
| 20260506230414 | 62 | 27 | 3.0 | 7.0 | 0.00 | 0.00 | 0.00 | 47 | 1015.2 |
| 20260506225912 | 63 | 78 | 4.0 | 8.0 | 0.00 | 0.00 | 0.00 | 46 | 1015.2 |
| 20260506225411 | 62 | 42 | 4.0 | 10.0 | 0.00 | 0.00 | 0.00 | 46 | 1015.1 |
| 20260506224912 | 63 | 82 | 4.0 | 10.0 | 0.00 | 0.00 | 0.00 | 45 | 1015.1 |
| 20260506224411 | 63 | 92 | 3.0 | 9.0 | 0.00 | 0.00 | 0.00 | 45 | 1015.1 |
| 20260506223913 | 63 | 76 | 2.0 | 12.0 | 0.00 | 0.00 | 0.00 | 46 | 1015.1 |
| 20260506223412 | 63 | 71 | 4.0 | 12.0 | 0.00 | 0.00 | 0.00 | 45 | 1015.1 |
| 20260506222911 | 63 | 119 | 4.0 | 10.0 | 0.00 | 0.00 | 0.00 | 46 | 1015.0 |
| 20260506222414 | 62 | 62 | 2.0 | 7.0 | 0.00 | 0.00 | 0.00 | 46 | 1015.0 |
| 20260506221913 | 62 | 73 | 2.0 | 10.0 | 0.00 | 0.00 | 0.00 | 47 | 1015.2 |
| 20260506221412 | 62 | 139 | 4.0 | 10.0 | 0.00 | 0.00 | 0.00 | 48 | 1015.2 |
| 20260506220914 | 62 | 71 | 4.0 | 7.0 | 0.00 | 0.00 | 0.00 | 46 | 1015.3 |
| 20260506220413 | 62 | 91 | 4.0 | 9.0 | 0.00 | 0.00 | 0.00 | 47 | 1015.4 |
| 20260506215912 | 62 | 106 | 4.0 | 6.0 | 0.00 | 0.00 | 0.00 | 48 | 1015.3 |
| 20260506215411 | 62 | 121 | 1.0 | 5.0 | 0.00 | 0.00 | 0.00 | 49 | 1015.2 |
| 20260506214913 | 62 | 80 | 3.0 | 9.0 | 0.00 | 0.00 | 0.00 | 48 | 1015.2 |
| 20260506214412 | 62 | 66 | 2.0 | 8.0 | 0.00 | 0.00 | 0.00 | 48 | 1015.3 |
| 20260506213913 | 63 | 57 | 4.0 | 8.0 | 0.00 | 0.00 | 0.00 | 48 | 1015.4 |
| 20260506213413 | 63 | 54 | 4.0 | 9.0 | 0.00 | 0.00 | 0.00 | 47 | 1015.3 |
| 20260506204413 | 60 | 78 | 2.0 | 6.0 | 0.00 | 0.00 | 0.00 | 52 | 1016.1 |
| 20260506203911 | 60 | 118 | 4.0 | 9.0 | 0.00 | 0.00 | 0.00 | 54 | 1016.4 |
| 20260506203414 | 60 | 110 | 2.0 | 6.0 | 0.00 | 0.00 | 0.00 | 57 | 1016.3 |
| 20260506202912 | 61 | 103 | 3.0 | 8.0 | 0.00 | 0.00 | 0.00 | 56 | 1016.6 |
| 20260506202413 | 63 | 72 | 3.0 | 6.0 | 0.00 | 0.00 | 0.00 | 52 | 1016.6 |
| 20260506201913 | 63 | 67 | 2.0 | 4.0 | 0.00 | 0.00 | 0.00 | 50 | 1016.5 |
| 20260506200414 | 61 | 111 | 1.0 | 5.0 | 0.00 | 0.00 | 0.00 | 56 | 1016.5 |
| 20260506185413 | 65 | 28 | 5.0 | 10.0 | 0.00 | 0.00 | 0.00 | 49 | 1016.8 |
| 20260506184911 | 65 | 120 | 3.0 | 10.0 | 0.00 | 0.00 | 0.00 | 46 | 1016.8 |
| 20260506184414 | 65 | 50 | 5.0 | 9.0 | 0.00 | 0.00 | 0.00 | 45 | 1016.9 |
| 20260506183913 | 64 | 112 | 2.0 | 6.0 | 0.00 | 0.00 | 0.00 | 48 | 1017.0 |
| 20260506183413 | 64 | 40 | 4.0 | 6.0 | 0.00 | 0.00 | 0.00 | 46 | 1017.3 |
| 20260506164913 | 60 | 128 | 4.0 | 6.0 | 0.00 | 0.00 | 0.00 | 58 | 1018.0 |
| 20260506163913 | 61 | 117 | 2.0 | 8.0 | 0.00 | 0.00 | 0.00 | 51 | 1017.2 |
| 20260506163413 | 60 | 133 | 5.0 | 8.0 | 0.00 | 0.00 | 0.00 | 56 | 1017.3 |
| 20260506162912 | 59 | 80 | 4.0 | 8.0 | 0.00 | 0.00 | 0.00 | 55 | 1017.2 |
| 20260506162414 | 57 | 116 | 4.0 | 10.0 | 0.00 | 0.00 | 0.00 | 60 | 1017.1 |
| 20260506161413 | 55 | 151 | 5.0 | 11.0 | 0.00 | 0.00 | 0.00 | 64 | 1017.2 |
| 20260506160914 | 55 | 131 | 6.0 | 11.0 | 0.00 | 0.00 | 0.00 | 62 | 1017.5 |
| 20260506160413 | 54 | 126 | 5.0 | 11.0 | 0.00 | 0.00 | 0.00 | 62 | 1017.5 |
| 20260506155913 | 53 | 132 | 8.0 | 13.0 | 0.00 | 0.00 | 0.00 | 64 | 1017.6 |
| 20260506155414 | 54 | 124 | 9.0 | 13.0 | 0.00 | 0.00 | 0.00 | 64 | 1017.5 |
| 20260506154912 | 54 | 140 | 6.0 | 10.0 | 0.00 | 0.00 | 0.00 | 66 | 1017.5 |
| 20260506154414 | 54 | 132 | 7.0 | 12.0 | 0.00 | 0.00 | 0.00 | 65 | 1017.5 |
| 20260506153913 | 55 | 143 | 5.0 | 9.0 | 0.00 | 0.00 | 0.00 | 65 | 1017.2 |
| 20260506153413 | 55 | 122 | 5.0 | 9.0 | 0.00 | 0.00 | 0.00 | 65 | 1017.1 |
| 20260506152913 | 53 | 127 | 3.0 | 9.0 | 0.00 | 0.00 | 0.00 | 65 | 1017.1 |
| 20260506152412 | 52 | 118 | 4.0 | 7.0 | 0.00 | 0.00 | 0.00 | 69 | 1017.2 |
| 20260506151914 | 52 | 66 | 3.0 | 7.0 | 0.00 | 0.00 | 0.00 | 70 | 1017.5 |
| 20260506151413 | 51 | 106 | 2.0 | 10.0 | 0.00 | 0.00 | 0.00 | 70 | 1017.5 |
| 20260506150914 | 51 | 116 | 4.0 | 9.0 | 0.00 | 0.00 | 0.00 | 72 | 1017.5 |
| 20260506150411 | 51 | 100 | 2.0 | 9.0 | 0.00 | 0.00 | 0.00 | 72 | 1017.3 |
| 20260506145912 | 51 | 109 | 2.0 | 8.0 | 0.00 | 0.00 | 0.00 | 73 | 1017.3 |
| 20260506145414 | 51 | 100 | 4.0 | 10.0 | 0.00 | 0.00 | 0.00 | 72 | 1017.5 |
| 20260506144914 | 51 | 84 | 2.0 | 9.0 | 0.00 | 0.00 | 0.00 | 73 | 1017.7 |
| 20260506144415 | 50 | 103 | 2.0 | 9.0 | 0.00 | 0.00 | 0.00 | 75 | 1017.7 |
| 20260506143413 | 51 | 117 | 3.0 | 7.0 | 0.00 | 0.00 | 0.00 | 76 | 1017.5 |
| 20260506142913 | 51 | 121 | 3.0 | 9.0 | 0.00 | 0.00 | 0.00 | 76 | 1017.5 |
| 20260506142414 | 51 | 82 | 3.0 | 9.0 | 0.00 | 0.00 | 0.00 | 73 | 1017.3 |
| 20260506141913 | 51 | 89 | 3.0 | 9.0 | 0.00 | 0.00 | 0.00 | 76 | 1017.6 |
| 20260506141413 | 52 | 62 | 3.0 | 7.0 | 0.00 | 0.00 | 0.00 | 75 | 1017.3 |
| 20260506140914 | 51 | 107 | 3.0 | 5.0 | 0.00 | 0.00 | 0.00 | 75 | 1017.0 |
| 20260506140414 | 51 | 65 | 2.0 | 6.0 | 0.00 | 0.00 | 0.00 | 78 | 1017.1 |
| 20260506135913 | 51 | 40 | 3.0 | 6.0 | 0.00 | 0.00 | 0.00 | 77 | 1017.2 |
| 20260506135414 | 50 | 98 | 3.0 | 6.0 | 0.00 | 0.00 | 0.00 | 78 | 1017.1 |
| 20260506134914 | 50 | 114 | 3.0 | 6.0 | 0.00 | 0.00 | 0.00 | 78 | 1017.2 |
| 20260506134414 | 50 | 66 | 2.0 | 5.0 | 0.00 | 0.00 | 0.00 | 79 | 1017.2 |
| 20260506133913 | 49 | 105 | 4.0 | 8.0 | 0.00 | 0.00 | 0.00 | 80 | 1017.2 |
| 20260506133414 | 50 | 83 | 2.0 | 7.0 | 0.00 | 0.00 | 0.00 | 80 | 1017.0 |
| 20260506132913 | 49 | 77 | 1.0 | 8.0 | 0.00 | 0.00 | 0.00 | 80 | 1016.9 |
| 20260506132413 | 49 | 51 | 3.0 | 5.0 | 0.00 | 0.00 | 0.00 | 81 | 1017.0 |
| 20260506131914 | 48 | 120 | 2.0 | 6.0 | 0.00 | 0.00 | 0.00 | 82 | 1016.9 |
| 20260506131413 | 48 | 113 | 4.0 | 7.0 | 0.00 | 0.00 | 0.00 | 82 | 1016.8 |
| 20260506130913 | 48 | 111 | 6.0 | 7.0 | 0.00 | 0.00 | 0.00 | 83 | 1016.7 |
| 20260506130414 | 48 | 103 | 2.0 | 7.0 | 0.00 | 0.00 | 0.00 | 83 | 1016.8 |
| 20260506125913 | 48 | 48 | 2.0 | 6.0 | 0.00 | 0.00 | 0.00 | 84 | 1016.8 |
| 20260506125413 | 47 | 71 | 3.0 | 7.0 | 0.00 | 0.00 | 0.00 | 84 | 1016.8 |
| 20260506124911 | 47 | 57 | 3.0 | 9.0 | 0.00 | 0.00 | 0.00 | 85 | 1016.8 |
| 20260506124413 | 47 | 63 | 4.0 | 8.0 | 0.00 | 0.00 | 0.00 | 85 | 1016.9 |
| 20260506123913 | 47 | 85 | 2.0 | 9.0 | 0.00 | 0.00 | 0.00 | 86 | 1016.8 |
| 20260506123411 | 47 | 32 | 2.0 | 7.0 | 0.00 | 0.00 | 0.00 | 86 | 1016.9 |
| 20260506122914 | 47 | 40 | 3.0 | 8.0 | 0.00 | 0.00 | 0.00 | 86 | 1016.9 |